Date String (YYYY-MM-DD hh:mm:ss) UTC,Instrument flags,Ambient pressure (hPa),Sample flow (lpm),Bypass flow (lpm),Sample temperature (°C),Ambient temperature (°C),ASC tube jacket temperature (°C),LED temperature (°C),Box temperature (°C),Sample RH (%),Span deviation,Mass concentration (μg/m³),Mass concentration (μg/m³),Mass concentration (μg/m³)
DateTimeUTC,F1_M11,P_M11,Q1_M11,Q2_M11,T1_M11,T2_M11,T3_M11,T4_M11,T5_M11,U1_M11,ZSPAN_M11,X2_M11,X0_M11,X1_M11
2021-12-02 11:00:00,,0828.3,5.01,0.00,29.5,28.5,00.0,38.5,31.1,07.4,0000.0,0000.31,0001.94,0000.21
2021-12-02 11:01:00,,0828.4,5.00,0.00,29.5,28.5,00.0,38.5,31.1,07.4,0000.0,0000.31,0001.58,0000.21
2021-12-02 11:02:00,,0828.3,5.00,0.00,29.5,28.5,00.0,38.5,31.1,07.4,0000.0,0000.31,0001.54,0000.21
2021-12-02 11:03:00,,0828.3,4.99,0.00,29.5,28.5,00.0,38.5,31.1,07.3,0000.0,0000.31,0001.54,0000.21
2021-12-02 11:04:00,,0828.3,5.01,0.00,29.5,28.5,00.0,38.5,31.2,07.4,0000.0,0000.30,0001.52,0000.21
2021-12-02 11:05:00,,0828.3,4.99,0.00,29.5,28.5,00.0,38.5,31.2,07.4,0000.0,0000.30,0001.51,0000.20
2021-12-02 11:06:00,,0828.4,5.00,0.00,29.5,28.5,00.0,38.5,31.2,07.3,0000.0,0000.29,0001.48,0000.20
2021-12-02 11:07:00,,0828.4,5.00,0.00,29.5,28.5,00.0,38.5,31.2,07.3,0000.0,0000.28,0001.47,0000.20
2021-12-02 11:08:00,,0828.3,5.01,0.00,29.5,28.5,00.0,38.5,31.2,07.3,0000.0,0000.29,0001.48,0000.19
2021-12-02 11:09:00,,0828.3,4.99,0.00,29.5,28.5,00.0,38.5,31.2,07.3,0000.0,0000.28,0001.12,0000.19
2021-12-02 11:10:00,,0828.3,5.01,0.00,29.5,28.5,00.0,38.5,31.2,07.3,0000.0,0000.33,0000.56,0000.20
2021-12-02 11:11:00,,0828.3,5.00,0.00,29.5,28.5,00.0,38.5,31.2,07.3,0000.0,0000.35,0000.59,0000.19
2021-12-02 11:12:00,,0828.3,5.01,0.00,29.5,28.5,00.0,38.5,31.2,07.3,0000.0,0000.33,0000.56,0000.19
2021-12-02 11:13:00,,0828.4,4.98,0.00,29.5,28.5,00.0,38.5,31.2,07.4,0000.0,0000.32,0000.55,0000.19
2021-12-02 11:14:00,,0828.3,5.00,0.00,29.5,28.5,00.0,38.5,31.2,07.4,0000.0,0000.33,0000.58,0000.18
2021-12-02 11:15:00,,0828.3,5.02,0.00,29.5,28.5,00.0,38.5,31.2,07.4,0000.0,0000.36,0000.71,0000.18
2021-12-02 11:16:00,,0828.3,4.98,0.00,29.5,28.5,00.0,38.5,31.2,07.3,0000.0,0000.38,0000.81,0000.18
2021-12-02 11:17:00,,0828.3,5.02,0.00,29.5,28.5,00.0,38.5,31.2,07.3,0000.0,0000.40,0000.89,0000.19
2021-12-02 11:18:00,,0828.3,5.00,0.00,29.5,28.5,00.0,38.5,31.2,07.4,0000.0,0000.40,0000.98,0000.19
2021-12-02 11:19:00,,0828.3,5.00,0.00,29.5,28.5,00.0,38.5,31.2,07.4,0000.0,0000.40,0001.00,0000.20
2021-12-02 11:20:00,,0828.3,5.00,0.00,29.5,28.5,00.0,38.5,31.2,07.3,0000.0,0000.41,0001.02,0000.21
2021-12-02 11:21:00,,0828.3,5.00,0.00,29.5,28.5,00.0,38.5,31.1,07.3,0000.0,0000.36,0000.86,0000.21
2021-12-02 11:22:00,,0828.3,5.00,0.00,29.4,28.5,00.0,38.4,31.1,07.3,0000.0,0000.37,0000.88,0000.22
2021-12-02 11:23:00,,0828.3,5.00,0.00,29.4,28.5,00.0,38.4,31.2,07.3,0000.0,0000.37,0000.89,0000.22
2021-12-02 11:24:00,,0828.3,5.00,0.00,29.4,28.5,00.0,38.4,31.2,07.3,0000.0,0000.38,0000.91,0000.22
2021-12-02 11:25:00,,0828.3,5.00,0.00,29.4,28.5,00.0,38.4,31.1,07.3,0000.0,0000.40,0000.94,0000.23
2021-12-02 11:26:00,,0828.3,5.01,0.00,29.4,28.5,00.0,38.4,31.1,07.3,0000.0,0000.38,0000.85,0000.23
2021-12-02 11:27:00,,0828.3,4.99,0.00,29.4,28.5,00.0,38.4,31.2,07.3,0000.0,0000.36,0000.78,0000.23
2021-12-02 11:28:00,,0828.3,5.02,0.00,29.4,28.5,00.0,38.4,31.2,07.3,0000.0,0000.35,0000.70,0000.23
2021-12-02 11:29:00,,0828.3,4.98,0.00,29.4,28.5,00.0,38.4,31.1,07.3,0000.0,0000.35,0000.62,0000.23
2021-12-02 11:30:00,,0828.3,5.01,0.00,29.4,28.5,00.0,38.4,31.1,07.4,0000.0,0000.35,0000.60,0000.23
2021-12-02 11:31:00,,0828.3,5.01,0.00,29.4,28.5,00.0,38.4,31.1,07.4,0000.0,0000.34,0000.59,0000.23
2021-12-02 11:32:00,,0828.2,4.98,0.00,29.4,28.5,00.0,38.4,31.2,07.4,0000.0,0000.35,0000.87,0000.22
2021-12-02 11:33:00,,0828.2,5.02,0.00,29.4,28.5,00.0,38.4,31.1,07.4,0000.0,0000.34,0001.00,0000.22
2021-12-02 11:34:00,,0828.2,5.00,0.00,29.4,28.5,00.0,38.4,31.1,07.5,0000.0,0000.34,0000.99,0000.22
2021-12-02 11:35:00,,0828.2,5.00,0.00,29.4,28.5,00.0,38.4,31.1,07.5,0000.0,0000.32,0000.94,0000.21
2021-12-02 11:36:00,,0828.3,4.99,0.00,29.4,28.5,00.0,38.4,31.1,07.6,0000.0,0000.28,0000.86,0000.20
2021-12-02 11:37:00,,0828.2,5.01,0.00,29.4,28.5,00.0,38.4,31.1,07.6,0000.0,0000.27,0000.81,0000.20
2021-12-02 11:38:00,,0828.2,5.00,0.00,29.4,28.5,00.0,38.4,31.1,07.6,0000.0,0000.27,0000.83,0000.20
2021-12-02 11:39:00,,0828.2,4.99,0.00,29.4,28.5,00.0,38.4,31.1,07.6,0000.0,0000.30,0001.15,0000.20
2021-12-02 11:40:00,,0828.3,5.01,0.00,29.4,28.5,00.0,38.4,31.1,07.5,0000.0,0000.30,0002.50,0000.20
2021-12-02 11:41:00,,0828.2,4.99,0.00,29.4,28.5,00.0,38.4,31.1,07.5,0000.0,0000.28,0002.47,0000.19
2021-12-02 11:42:00,,0828.2,5.01,0.00,29.4,28.5,00.0,38.4,31.1,07.6,0000.0,0000.29,0002.50,0000.18
2021-12-02 11:43:00,,0828.2,4.98,0.00,29.4,28.5,00.0,38.4,31.2,07.6,0000.0,0000.30,0002.23,0000.18
2021-12-02 11:44:00,,0828.2,5.02,0.00,29.4,28.5,00.0,38.4,31.2,07.5,0000.0,0000.28,0002.07,0000.18
2021-12-02 11:45:00,,0828.2,4.99,0.00,29.4,28.5,00.0,38.4,31.1,07.4,0000.0,0000.28,0002.07,0000.18
2021-12-02 11:46:00,,0828.2,5.00,0.00,29.4,28.5,00.0,38.4,31.2,07.6,0000.0,0000.29,0002.08,0000.19
2021-12-02 11:47:00,,0828.2,5.01,0.00,29.4,28.5,00.0,38.4,31.2,07.6,0000.0,0000.28,0002.06,0000.20
2021-12-02 11:48:00,,0828.2,4.99,0.00,29.4,28.5,00.0,38.4,31.2,07.6,0000.0,0000.31,0002.27,0000.20
2021-12-02 11:49:00,,0828.2,5.00,0.00,29.4,28.5,00.0,38.4,31.2,07.8,0000.0,0000.34,0002.75,0000.21
2021-12-02 11:50:00,,0828.2,5.00,0.00,29.5,28.5,00.0,38.4,31.2,07.8,0000.0,0000.37,0003.54,0000.22
2021-12-02 11:51:00,,0828.2,5.00,0.00,29.4,28.5,00.0,38.4,31.2,07.9,0000.0,0000.40,0002.16,0000.23
2021-12-02 11:52:00,,0828.2,5.00,0.00,29.4,28.5,00.0,38.4,31.2,07.9,0000.0,0000.45,0002.32,0000.24
2021-12-02 11:53:00,,0828.2,4.99,0.00,29.4,28.5,00.0,38.4,31.2,07.8,0000.0,0000.46,0002.34,0000.25
2021-12-02 11:54:00,,0828.1,5.01,0.00,29.4,28.5,00.0,38.4,31.2,07.8,0000.0,0000.45,0002.33,0000.25
2021-12-02 11:55:00,,0828.2,4.99,0.00,29.4,28.5,00.0,38.4,31.2,07.9,0000.0,0000.53,0003.04,0000.26
2021-12-02 11:56:00,,0828.2,5.00,0.00,29.4,28.5,00.0,38.4,31.2,08.0,0000.0,0000.63,0003.36,0000.27
2021-12-02 11:57:00,,0828.2,5.00,0.00,29.4,28.5,00.0,38.4,31.2,07.9,0000.0,0000.74,0004.63,0000.27
2021-12-02 11:58:00,,0828.2,4.98,0.00,29.4,28.5,00.0,38.4,31.2,07.9,0000.0,0000.79,0004.97,0000.28
2021-12-02 11:59:00,,0828.2,5.00,0.00,29.5,28.5,00.0,38.4,31.2,07.9,0000.0,0000.83,0005.10,0000.29
